Regional Weather Roundup
Issued by NWS Pendleton, OR

Home | Current Version | Previous Version | Text Only | Print | Product List | Glossary On
Versions: 1 2 3 4 5 6 7 8 9 10 11 12 13 14 15 16 17 18 19 20 21 22 23 24 25 26 27 28 29 30 31 32 33 34 35 36 37 38 39 40 41 42 43 44 45 46 47 48 49 50
000
ASUS46 KPDT 200110
RWRPDT
PENDLETON REGIONAL WEATHER ROUNDUP
NATIONAL WEATHER SERVICE PENDLETON OREGON
600 PM PDT TUE SEP 19 2017

NOTE: FAIR INDICATES FEW OR NO CLOUDS BELOW 12,000 FEET WITH NO
SIGNIFICANT WEATHER AND/OR OBSTRUCTIONS TO VISIBILITY.

# INDICATES UNOFFICIAL STATION AND DATA

WAZ520-200210-
EAST SLOPES OF WASHINGTON CASCADES

CITY            SKY/WX      TMP DP  RH  WIND    PRES   REMARKS
#BULLFROG       N/A         50  44  80  W2      N/A
#CLE ELUM HS    N/A         50  41  71  CALM    29.68F
#CLE ELUM LAKE  N/A         45  42  89  CALM    29.90S
#EASTON DOT     N/A         44  44  100 N1      N/A
#ELK HTS DOT    N/A         51  51  100 SW1     N/A
#GLENWOOD       N/A         49  46  89  S5      29.79R
#NELSON 3SW     N/A         44  42  93  CALM    29.93R
#NILE           N/A         53  37  54  W6      28.99S
#TEANAWAY 4NE   N/A         52  42  69  W2      N/A
#TROUT LAKE 1NE N/A         48  43  83  SW6     29.80S
#TROUT LAKE 1E  N/A         47  44  89  CALM    29.83S
$$

WAZ521-200210-
SIMCOE HIGHLANDS

CITY            SKY/WX      TMP DP  RH  WIND    PRES   REMARKS
#BICKLETON HS   N/A         50  45  83  SW28    29.66S
#CENTERVILLE 1SWN/A         52  45  77  W6      29.76S
#GOLDENDALE 1NE N/A         58  28  32  SW1     N/A
#GOLDENDALE 4W  N/A         51  37  59  W8      29.85S
#GOODNOE HILLS  N/A         57  45  64  W12     N/A
#LYLE 6NE       N/A         53  48  83  W2      29.80F
#PITT 4SE       N/A         49  46  89  SW3     29.83F
$$

WAZ026-200210-
KITTITAS VALLEY

CITY            SKY/WX      TMP DP  RH  WIND    PRES   REMARKS
ELLENSBURG AP   MOCLDY      56  39  53  NW14    29.71R
#ELLENSBURG CWU N/A         56  41  57  N5      29.65R
#ELLENSBURG 3NE N/A         53  41  64  N7      27.80S
#ELLENSBURG 1E  N/A         55  40  57  N2      29.74S
#KITTITAS 3S    N/A         55  44  66  W5      29.68F
#MANASTASH RDG  N/A         51  51  100 NW6     N/A
#ROCKY CYN DOT  N/A         55  39  55  NW6     N/A
#RYEGRASS DOT   N/A         52  36  54  W15     N/A
$$

WAZ027-200210-
YAKIMA VALLEY

CITY            SKY/WX      TMP DP  RH  WIND    PRES   REMARKS
SUNNYSIDE AP    PTCLDY      58  37  45  SW12    29.73S
YAKIMA AIRPORT  CLOUDY      59  39  47  W16G24  29.73R
YAKIMA-VAGABOND MOCLDY      54  37  52  W17G28  29.71S
#DONALD 2NE     N/A         59  10  14  S8      28.59R
#MABTON         N/A         62  42  48  SW10    29.73S
#MOXEE 2E       N/A         56  N/A N/A W5      29.70R
#NACHES 2SW     N/A         53  40  61  SW7     29.73R
#OUTLOOK DOT    N/A         61  36  39  CALM    29.70S
#PARKER DOT     N/A         59  36  42  SE8     29.73R
#TERRACE HTS    N/A         55  39  55  N8      29.69S
#TOPPENISH      N/A         61  40  46  W8      29.65R
#I82 S UMTANUM RN/A         52  34  50  SW17G26 N/A
#UNION GAP DOT  N/A         56  38  51  NW5     29.76R
#W YAKIMA       N/A         54  38  55  W2      29.73R
#WHITE SWAN 5E  N/A         59  41  51  SW7     29.74R
#WILEY CITY 3W  N/A         58  34  40  W1      29.71S
#ZILLAH DOT     N/A         61  36  39  W12     N/A
$$

WAZ028-200210-
LOWER COLUMBIA BASIN...WASHINGTON

CITY            SKY/WX      TMP DP  RH  WIND    PRES   REMARKS
PASCO           MOCLDY      63  40  43  SW25    29.73S
PROSSER AWOS    N/A         59  43  55  SW20    29.77R
RICHLAND AWOS   MOCLDY      65  41  41  SW14G26 29.73R
#BENTON CITY    N/A         61  39  44  W1      29.63S
#CONNELL 5N     N/A         55  49  80  CALM    29.70F
#CONNELL 5NW    N/A         55  47  74  CALM    29.65F
#ELTOPIA 6NW    N/A         60  42  51  SW14G31 28.69R
#KAHLOTUS       N/A         55  42  61  NW13G39 29.70S
#KENNEWICK 3S   N/A         61  44  53  NW3G24  29.74R
#PATERSON       N/A         61  43  51  NW14    29.75R
#PROSSER DOT    N/A         62  38  41  SW9     29.75R
#SAGEMOOR 2W    N/A         58  44  60  SW12    29.58R
#TOUCHET 2S     N/A         61  42  50  SW15G26 29.73S
#WEST PASCO     N/A         63  44  50  CALM    29.71R
$$

WAZ029-200210-
FOOTHILLS OF THE BLUES...WASHINGTON

CITY            SKY/WX      TMP DP  RH  WIND    PRES   REMARKS
WALLA WALLA AP  CLOUDY      59  44  57  S15     29.77S
#CLYDE 6NW      N/A         59  41  51  W24G36  29.71R
#DAYTON SCHOOL  N/A         55  37  51  E12G26  29.78S
#PLEASANT VIEW 1N/A         57  40  53  SE15G29 29.75S
#PRESCOTT       N/A         63  43  48  CALM    29.73F
#WAITSBURG 6SSE N/A         54  41  61  SE7     29.79S
#WALLA WALLA 5E N/A         55  46  72  S15     N/A
#WHITMAN MISSIONN/A         62  43  50  S10     29.78S
$$

WAZ030-200210-
BLUE MOUNTAINS...WASHINGTON

CITY            SKY/WX      TMP DP  RH  WIND    PRES   REMARKS
#DIXIE 5SE      N/A         48  40  74  S12     29.71R WCI 43
$$

ORZ009-041-WAZ024-200210-
COLUMBIA RIVER GORGE

CITY            SKY/WX      TMP DP  RH  WIND    PRES   REMARKS
HOOD RIVER AP   CLOUDY      57  45  64  S12     29.81S
THE DALLES AP   MOCLDY      62  43  50  W15     29.79S
#CELILO DOT     N/A         63  42  46  W5      N/A
#LYLE           N/A         61  50  67  N1      29.80S
#MARYHILL       N/A         57  43  59  N12     N/A
#RUFUS DOT      N/A         62  N/A N/A NW20    N/A
#SMITHVILLE     N/A         61  48  62  N5      29.81R

$$

ORZ510-200210-
NORTH CENTRAL OREGON

CITY            SKY/WX      TMP DP  RH  WIND    PRES   REMARKS
#ANTELOPE       N/A         52  37  56  W8      29.70S
#CHENOWITH 1W   N/A         56  43  62  W17G24  N/A
#COW CYN RST AREN/A         51  34  52  SW8     N/A
#DUFUR          N/A         57  41  55  S9      29.77S
#DUFUR 9E       N/A         51  40  66  SW13    29.86F
#GRASS VALLEY 1SN/A         50  39  66  SW17G25 29.85F
#KENT DOT       N/A         47  38  71  W21     N/A    WCI 39
#MAUPIN SCHOOL  N/A         56  44  64  CALM    29.88F
#MORO SCHOOL    N/A         53  45  74  SW2     29.81S
#SHANIKO 4NW    N/A         45  40  82  W10     29.84R
#TYGH VALLEY 2NEN/A         55  41  59  N9      29.80F
#WAPANITIA AIRPON/A         53  42  66  S1      29.84F
#WASCO DOT      N/A         60  37  42  W12     N/A
#WASCO 5NE      N/A         56  41  57  SW7     29.78F
$$

ORZ511-200210-
CENTRAL OREGON

CITY            SKY/WX      TMP DP  RH  WIND    PRES   REMARKS
BEND AIRPORT    CLOUDY      57  36  45  VRB5    29.87S
MADRAS AIRPORT  CLOUDY      57  55  93  S8      29.86F
PRINEVILLE AP   CLOUDY      52  37  56  NW18    29.88S
REDMOND AIRPORT MOCLDY      53  35  50  N14     29.86S
#ASHWOOD SCHOOL N/A         56  37  49  CALM    29.82S
#BEND 1SW       N/A         52  39  61  S3      N/A
#BEND-AWBREY    N/A         52  39  61  SW14    29.86S
#BEND-KIM LN    N/A         54  38  55  W9      29.77F
#CULVER         N/A         55  38  53  S7      29.73F
#CULVER 8W      N/A         54  37  52  CALM    29.88S
#LAKE BILLY CHINN/A         54  N/A N/A SW5     29.92F
#MADRAS 4S      N/A         54  12  18  CALM    N/A
#POWELL BUTTE   N/A         51  38  61  NW6     29.84S
#PRINEVILLE     N/A         53  39  59  NW5     29.94S
#PRINEVILLE 3N  N/A         52  39  61  W17     29.85S
#WARM SPRINGS   N/A         61  38  42  CALM    29.67F

$$


ORZ509-200210-
EAST SLOPES OF OREGON CASCADES

CITY            SKY/WX      TMP DP  RH  WIND    PRES   REMARKS
SISTERS AWOS    N/A         52  39  61  S7      N/A
#CAMP SHERMAN   N/A         48  39  71  S2      29.90F
#LA PINE 4NW    N/A         48  36  63  W5      29.93S
#LAVA BUTTE DOT N/A         47  31  53  SW2     N/A
#SISTERS ODOT   N/A         50  37  61  SW8     N/A
#SISTERS 3N     N/A         48  42  80  W3      29.88S
#SUNRIVER       N/A         47  38  71  SW3     29.91S
#TUMALO 3W      N/A         52  38  59  E8      29.72F
#WANOGA BUTTE D N/A         38  35  89  W14     N/A    WCI 30

$$

ORZ044-200210-
LOWER COLUMBIA BASIN...OREGON

CITY            SKY/WX      TMP DP  RH  WIND    PRES   REMARKS
HERMISTON       MOCLDY      62  41  46  W14G26  29.77S
#BOARDMAN SCHOOLN/A         62  42  48  W10     29.76S
#BOARDMAN 8SW   N/A         63  43  48  SW18    29.78R
#ECHO 8SW       N/A         61  42  50  W7      29.79R
#I-84 EX 198 DOTN/A         59  40  49  E16     N/A
#IONE SCHOOL    N/A         59  38  45  SW16G25 29.80R
#UMATILLA       N/A         63  42  46  W7      29.69S
$$

ORZ507-200210-
NORTHERN FOOTHILLS OF THE BLUES

CITY            SKY/WX      TMP DP  RH  WIND    PRES   REMARKS
PENDLETON AIRPT MOCLDY      58  41  53  SW13    29.79S
#ADAMS 3WNW     N/A         57  44  62  W10     29.78R
#ATHENA         N/A         55  45  69  S1      29.81R
#CAYUSE         N/A         57  44  62  SW8     29.79S
#HELIX SCHOOL   N/A         57  41  55  SW9     29.78R
#HELIX 3N       N/A         56  40  55  SW23G30 29.77R
#HOLDMAN 6E     N/A         56  42  59  SW15    29.58R
#M-FREEWATER 5SEN/A         57  43  59  SW8     29.80S
#PENDLETON DNTN N/A         60  41  49  SW5     29.80R
#PDT AQUATIC CTRN/A         58  41  53  SW5     29.78S
#PDT SUNRIDGE   N/A         59  42  53  SW5     29.81S
#PENDLETON 7NW  N/A         57  45  64  CALM    N/A
#PILOT ROCK 1S  N/A         57  36  45  S1      29.82S
#PILOT ROCK     N/A         59  41  51  CALM    29.83S
#TUTUILLA       N/A         57  45  64  CALM    29.85F
#UMAPINE 2E     N/A         60  44  55  SW7     29.75S
#WESTON SCHOOL  N/A         53  42  66  NW12    29.70S

$$

ORZ508-200210-
SOUTHERN FOOTHILLS OF THE BLUES

CITY            SKY/WX      TMP DP  RH  WIND    PRES   REMARKS
LEXINGTON       MOCLDY      57  37  47  SW20G29 29.84R
#AJAX           N/A         52  34  50  W12G24  29.98R
#FOSSIL SCHOOL  N/A         54  38  55  W7      29.79S
#HEPPNER EOC    N/A         54  40  59  SW12    29.75S
#HEPPNER 4NE    N/A         51  39  63  SW9     29.81S
#LEXINGTON 2SE  N/A         59  41  51  W9      29.80R
#MIKKALO        N/A         56  36  47  W10     29.92S
#OLEX 4N        N/A         58  40  51  SW13    29.80R
#RUGGS 5NE      N/A         50  40  68  W8      30.01S
#RUGGS 2SW      N/A         50  40  68  W7      29.83S

$$

ORZ502-503-200210-
BLUE MOUNTAINS

CITY            SKY/WX      TMP DP  RH  WIND    PRES   REMARKS
MEACHAM         MOCLDY      43  40  89  CALM    29.83R
#BATTLE MTN DOT N/A         46  35  65  W1      N/A
#GRANITE        N/A         44  32  62  S2      29.74S
#LADD CYN SMT   N/A         45  39  79  N3      N/A
#LADD CREEK ODOTN/A         47  41  79  CALM    N/A
#LONG CREEK HS  N/A         50  40  68  CALM    N/A
#N POWDER DOT   N/A         51  34  52  N9      N/A
#PIKES PEAK     N/A         46  39  76  N22G30  27.99S WCI 38
#TOLLGATE       N/A         37  36  96  S6      29.70R
#TROY SCHOOL    N/A         54  42  64  SW2     29.63F
#UKIAH          N/A         52  37  56  S5      29.74F
#WESTON 4E      N/A         47  42  83  SW8     29.79R
$$

ORZ505-200210-
JOHN DAY BASIN

CITY            SKY/WX      TMP DP  RH  WIND    PRES   REMARKS
JOHN DAY        CLOUDY      53  33  46  W9      29.86S
#JOHN DAY KJDY  N/A         55  N/A N/A W1      28.79R
#ANTELOPE 9ESE  N/A         60  37  42  SW6     N/A
#DAYVILLE SCHOOLN/A         60  28  29  W9      29.81S
#MITCHELL       N/A         55  38  53  CALM    30.02S
#MITCHELL 8NW   N/A         52  34  50  W5      29.90R
#MONUMENT HS    N/A         59  35  40  N6      29.80S
#MT. VERNON 5SE N/A         50  33  52  CALM    29.81S
#SPRAY SCHOOL   N/A         60  N/A N/A CALM    N/A
$$

ORZ506-200210-
OCHOCO AND JOHN DAY HIGHLANDS

CITY            SKY/WX      TMP DP  RH  WIND    PRES   REMARKS
#HORSE RIDGE DO N/A         50  33  52  SW12    N/A
#PAULINA ODOT   N/A         54  33  45  W10     N/A
#PINE MTN OBS   N/A         39  33  79  S5      N/A
#PRAIRIE CITY   N/A         55  36  49  W2      29.99F
#SENECA         N/A         50  N/A N/A SW6     N/A
#SENECA 9NW     N/A         48  33  56  CALM    29.86S
$$

ORZ049-200210-
GRANDE RONDE VALLEY

CITY            SKY/WX      TMP DP  RH  WIND    PRES   REMARKS
LA GRANDE       LGT RAIN    48  41  77  SE8     29.85R
#COVE           N/A         44  43  96  W3      29.90R
#COVE SCHOOL    N/A         44  42  93  CALM    29.89R
#COVE 6NW       N/A         46  42  86  CALM    29.86R
#ELGIN 3N       N/A         47  41  79  S3      29.81S
#ELGIN 1E       N/A         47  41  79  S3      N/A
#IMBLER SCHOOL  N/A         47  39  74  S2      29.82S
#ISLAND CITY 4N N/A         58  51  77  SW1     29.84R
#LA GRANDE-LEFFEN/A         45  41  86  S10     26.88F
#UNION 1S       N/A         47  43  86  NE1     29.87R
$$

ORZ050-200210-
WALLOWA COUNTY

CITY            SKY/WX      TMP DP  RH  WIND    PRES   REMARKS
JOSEPH AIRPORT  LGT RAIN    43  37  79  CALM    29.86R
#ENTERPRISE HS  N/A         44  39  82  NW2     29.72R
#IMNAHA 10S     N/A         52  39  61  W1      29.82R
#JOSEPH         N/A         44  37  76  CALM    30.05S
#JOSEPH 3N      N/A         44  35  70  CALM    29.88R
#JOSEPH 3W      N/A         39  39  100 CALM    30.15S
#LOSTINE        N/A         44  39  82  CALM    29.65R
#LOSTINE 3SE    N/A         43  38  82  CALM    29.88R
#MT HOWARD 8000 N/A         28  26  92  W15G26  29.82R WCI 16
#PROMISE 1S     N/A         43  38  82  S6      29.89F
#WALLOWA LAKE   N/A         41  37  86  CALM    29.85R
#WALLOWA SCHOOL N/A         44  40  86  CALM    29.81F



$$



USA.gov is the U.S. government's official web portal to all federal, state and local government web resources and services.